Weather in Kizner

Russia / Udmurt Republic     56°18′46″N   51°30′37″E
temp.,
°C
wind,
m/s
gust,
m/s
humid.,
%
clouds,
%
prec.,
mm/h
press.,
hPa
HPBL,
m
10 may, mon
mon1001:00+15se3106282 0.0 1015256
04:00+14se236698 0.0 101748
07:00+16ese3665100 0.0 1018162
10:00+17e2461100 0.0 1019186
13:00+23sse3438100 0.0 10201966
16:00+23sse2340100 0.0 10211706
19:00+20ese1156100 0.0 102214
22:00+16ene116162 0.0 102311
11 may, tue
tue1101:00+14nne2372100 0.0 102450
04:00+13ene2576100 0.0 102586
07:00+16nne2270100 0.0 1026122
10:00+21ne225089 0.0 1027608
13:00+25ese223561 0.0 10272298
16:00+25se113497 0.0 10272035
19:00+21e125447 0.0 102728
22:00+16e116117 0.0 102811
12 may, wed
wed1201:00+14ne11665 0.0 102911
04:00+13ene11763 0.0 102911
07:00+17ene23685 0.0 1030153
10:00+22ese23485 0.0 1030824
13:00+25se33365 0.0 10292054
16:00+25se22355 0.0 10282246
19:00+22sse11503 0.0 102812
22:00+17se11595 0.0 102911
13 may, thu
thu1301:00+15ene11621 0.0 102911
04:00+14e11640 0.0 102911
07:00+18e12580 0.0 1029121
10:00+23se23460 0.0 1029822
13:00+26se34385 0.0 10282187
16:00+26sse33369 0.0 10272396
19:00+23s225313 0.0 102618
22:00+18ese11630 0.0 102711
14 may, fri
fri1401:00+16sse11725 0.0 102711
04:00+15se11775 0.0 102711
07:00+19sse12635 0.0 1027120
10:00+24s23421 0.0 1026843
13:00+26ssw34365 0.0 10262247
16:00+26ssw453046 0.0 10252114
19:00+22sw24505 0.0 102484
22:00+17s22615 0.0 102411